User: anonymous   Login
Location: Unspecified
(0.0000°N, 0.0000°E)
Time: 08:52:24
(UTC+00:00)
Language:

Galileo 5 - Orbit

View from above orbital plane
View from above orbital plane
View from above satellite
View from above satellite

Ground track
Ground track

The orbit data is extracted from the following two-line orbital elements,

1 40128U 14050A   17177.76281733 -.00000101 +00000-0 +00000-0 0  9998
2 40128 050.3125 044.8284 1626232 063.8730 312.0278 01.85518271017540
Epoch (UTC): 26 June 2017 18:18:27
Eccentricity: 0.1626232
inclination: 50.3125°
perigee height: 17049 km
apogee height: 26149 km
right ascension of ascending node: 44.8284°
argument of perigee: 63.8730°
revolutions per day: 1.85518271
mean anomaly at epoch: 312.0278°
orbit number at epoch: 1754

The dashed part of the orbit path shows where the satellite is in the earth's shadow,  

DLR